Regional Weather Roundup
Issued by NWS

Home | Current Version | Previous Version | Graphics & Text | Print | Product List | Glossary Off
Versions: 1 2 3 4 5 6 7 8 9 10 11 12 13 14 15 16 17 18 19 20 21 22 23 24 25 26 27 28 29 30 31 32 33 34 35 36 37 38 39 40 41 42 43 44 45 46 47 48 49 50

000
ASUS43 KMKX 281621
RWRWI

WISCONSIN REGIONAL WEATHER ROUNDUP
NATIONAL WEATHER SERVICE MILWAUKEE/SULLIVAN WI
1100 AM CDT FRI APR 28 2017

NOTE: "FAIR" INDICATES FEW OR NO CLOUDS BELOW 12,000 FEET WITH NO
SIGNIFICANT WEATHER AND/OR OBSTRUCTIONS TO VISIBILITY.

WIZ001-002-006>008-014>016-023>028-281700-
NORTHWEST WISCONSIN

CITY           SKY/WX    TMP DP  RH WIND       PRES   REMARKS
SUPERIOR ARPT  CLOUDY    37  25  61 NW14G20   29.90R WCI  28
ASHLAND        CLOUDY    36  25  64 W13G21    29.88R WCI  27
HAYWARD        CLOUDY    34  23  64 W12G17    29.90R WCI  25
SIREN          CLOUDY    37  25  62 NW10G16   29.92R WCI  30
CUMBERLAND     SUNNY     36  25  64 NW9       29.90R WCI  29
RICE LAKE      MOSUNNY   38  27  62 NW8       29.91S WCI  33
CHETEK         NOT AVBL
LADYSMITH      PTSUNNY   38  27  65 NW10G16   29.90R WCI  30
EAU CLAIRE     SUNNY     41  23  48 NW7       29.92R
MENOMONIE      SUNNY     42  25  50 W7        29.92R
NEW RICHMOND   SUNNY     40  25  54 NW7       29.93R
OSCEOLA        SUNNY     40  27  60 NW8       29.96R WCI  34
$$

WIZ003>005-009-010-017-018-281700-
NORTH CENTRAL WISCONSIN

CITY           SKY/WX    TMP DP  RH WIND       PRES   REMARKS
MANITOWISH WTR NOT AVBL
ARBOR VITAE    CLOUDY    32  24  72 W10G17    29.85R WCI  24
WOODRUFF       CLOUDY    32  24  72 W10G17    29.85R WCI  24
RHINELANDER    CLOUDY    33  26  75 W15       29.86R WCI  23
EAGLE RIVER    CLOUDY    31  22  71 W10       29.84R WCI  22
LAND O LAKES   CLOUDY    33  22  64 W13       29.85R WCI  23
PHILLIPS       CLOUDY    33  23  66 W7G16     29.87R WCI  27
TOMAHAWK       CLOUDY    34  24  68 W9        29.88R WCI  26
MEDFORD        PTSUNNY   35  25  66 W5        29.88R WCI  31
MERRILL        CLOUDY    36  26  67 NW9       29.89R WCI  29
$$

WIZ029-030-035-036-043>047-281700-
CENTRAL WISCONSIN

CITY           SKY/WX    TMP DP  RH WIND       PRES   REMARKS
WAUSAU         CLOUDY    38  26  62 W8        29.89R WCI  32
MOSINEE        PTSUNNY   39  27  60 W7G16     29.91R WCI  34
MARSHFIELD     PTSUNNY   40  29  64 W9        29.89R WCI  34
STEVENS POINT  MOSUNNY   39  24  55 W8        29.91R WCI  33
WAUPACA        MOSUNNY   45  28  51 W7        29.92F
WAUTOMA        MOSUNNY   45  31  58 SW8       29.92F
WISC RAPIDS    PTSUNNY   42  28  57 CALM      29.91S
CAMP DOUGLAS   PTSUNNY   45  30  57 W6        29.92R
$$

WIZ011>013-019>022-031-037>040-048>050-281700-
NORTHEAST WISCONSIN

CITY           SKY/WX    TMP DP  RH WIND       PRES   REMARKS
ANTIGO         CLOUDY    34  26  72 W12       29.88R WCI  25
SHAWANO        CLOUDY    44  27  52 W7G16     29.92R
OCONTO         NOT AVBL
STURGEON BAY   CLOUDY    39  27  62 W14       29.93R WCI  31
GREEN BAY      CLOUDY    43  31  62 W10       29.91F
MANITOWOC      CLOUDY    43  31  62 SW12      29.94S
APPLETON       PTSUNNY   41  27  56 SW12      29.90S
CLINTONVILLE   PTSUNNY   43  27  52 W13       29.91R
OSHKOSH        MOSUNNY   42  31  64 W7        29.92F
$$

WIZ032>034-041-042-053>061-281700-
SOUTHWEST WISCONSIN

CITY           SKY/WX    TMP DP  RH WIND       PRES   REMARKS
LA CROSSE      MOSUNNY   47  31  53 NW5       29.93R
SPARTA         CLOUDY    44  31  60 NW6       29.94R
VIROQUA        MOSUNNY   43  31  62 W5        29.93R
BOSCOBEL       PTSUNNY   47  29  49 CALM      29.94R
PRAIRIE DU CHI CLOUDY    45  29  53 W3        29.93R
PLATTEVILLE    CLOUDY    43  33  67 NE7       29.93R
$$

WIZ056-057-062-063-064-067-068-281700-
SOUTH CENTRAL WISCONSIN

CITY           SKY/WX    TMP DP  RH WIND       PRES   REMARKS
REEDSBURG      NOT AVBL
BARABOO/DELLS  SUNNY     44  30  59 SE3       29.93R
LONE ROCK      SUNNY     46  30  53 W3        29.94R
MINERAL POINT  MOSUNNY   45  32  61 CALM      29.93R
MADISON        PTSUNNY   44  32  62 SE6       29.93S
MIDDLETON      MOSUNNY   45  31  59 CALM      29.93F
WATERTOWN      MOSUNNY   44  35  71 S3        29.93F
MONROE         CLOUDY    43  32  65 NE5       29.92F
JANESVILLE     MOSUNNY   46  36  66 CALM      29.92F
$$

WIZ051-052-058>065-066-070>072-281700-
SOUTHEAST WISCONSIN

CITY           SKY/WX    TMP DP  RH WIND       PRES   REMARKS
MILWAUKEE      MOSUNNY   49  36  61 VRB3      29.93S
WAUKESHA       SUNNY     45  34  65 SW3       29.95R
MILWAUKEE/TIMM SUNNY     46  30  53 CALM      29.95R
RACINE         SUNNY     50  35  56 S3        29.95S
KENOSHA        MOSUNNY   50  36  58 CALM      29.94R
FOND DU LAC    MOSUNNY   42  30  62 W8        29.94R
SHEBOYGAN      PTSUNNY   44  39  82 S8        29.94R
WEST BEND      SUNNY     45  36  70 SW7       29.92F
JUNEAU         MOSUNNY   42  33  73 SW3       29.94S
$$

LSZ147-162-281700-
LAKE SUPERIOR

STATION/POSITION TIME  TEMP    WIND        PRES    WAVE
                       AIR SEA DIR/SP/G            HT/PER
                 (UTC) (F)     (DEG/KT/KT) (MB)    (FT/S)
DEVILS ISLAND    1600   34     260/ 21/ 24 1011.3R
PORT WING        1530   35     260/ 11/ 18 1011.5R
SAXON HARBOR     1540   35     290/  9/ 13 1011.2R
$$

LMZ867-665-643>646-281700-
LAKE MICHIGAN

STATION/POSITION TIME  TEMP    WIND        PRES    WAVE
                       AIR SEA DIR/SP/G            HT/PER
                 (UTC) (F)     (DEG/KT/KT) (MB)    (FT/S)
CHAMBERS ISLAND  1540   37     210/  9/ 14 1012.5R
N MID LAKE BUOY  1550   36 37  230/ 16/ 19 1013.5R   3/ 5
NORTHPORT PIER   1540   37     280/  8/ 13 1012.9R
SISTER BAY       1336   36     300/ 17/ 20   N/A
KEWAUNEE LAKESHO 1554   41     270/ 10/ 13 1013.1R
SHEBOYGAN LAKESH 1600   39     150/ 11/ 12 1014.2R
PORT WASHINGTON  1540   42     130/  8/ 10 1015.2R
MILWAUKEE LAKESH 1600   43      90/  9/ 10   N/A
S MID LAKE BUOY  1550   42 42  190/  2/  4 1015.1R   1
KENOSHA   LAKESH 1600   45     130/  7/ 10 1014.2
$$

TC  - TEMPERATURE IN CELSIUS
VSB - VISIBILITY IN STATUTE MILES
WCI - WIND CHILL INDEX
HX  - HEAT INDEX




USA.gov is the U.S. government's official web portal to all federal, state and local government web resources and services.